Regional Weather Roundup
Issued by NWS

Home | Current Version | Previous Version | Graphics & Text | Print | Product List | Glossary On
Versions: 1 2 3 4 5 6 7 8 9 10 11 12 13 14 15 16 17 18 19 20 21 22 23 24 25 26 27 28 29 30 31 32 33 34 35 36 37 38 39 40 41 42 43 44 45 46 47 48 49 50
000
ASUS43 KBIS 271010
RWRND

NORTH DAKOTA REGIONAL WEATHER ROUNDUP
NATIONAL WEATHER SERVICE BISMARCK ND
500 AM CDT WED AUG 27 2014

NOTE: "FAIR" INDICATES FEW OR NO CLOUDS BELOW 12,000 FEET WITH NO
SIGNIFICANT WEATHER AND/OR OBSTRUCTIONS TO VISIBILITY.


NDZ001>003-009>011-017-271100-
NORTHWEST NORTH DAKOTA

CITY           SKY/WX    TMP DP  RH WIND       PRES   REMARKS
WILLISTON      CLEAR     54  52  93 S5        30.12S
MINOT          CLEAR     54  50  86 S6        30.13F
MINOT AFB      CLEAR     50  50  99 SW5       30.13S
$$

NDZ018>021-031>035-040>046-271100-
SOUTHWEST NORTH DAKOTA

CITY           SKY/WX    TMP DP  RH WIND       PRES   REMARKS
BISMARCK       FOG       50  50 100 CALM      30.18S VSB 1/4
DICKINSON      CLEAR     49  47  93 SE8       30.14F
GARRISON         N/A     48  47  96 CALM      30.15S
HETTINGER ARPT FOG       48  47  96 CALM      30.17R VSB 1/4
$$

NDZ004>008-012>016-024-026-027-054-271100-
NORTHEAST NORTH DAKOTA

CITY           SKY/WX    TMP DP  RH WIND       PRES   REMARKS
GRAND FORKS    CLEAR     49  48  97 S3        30.16S
GRND FRKS AFB  CLEAR     50  50  99 W2        30.16F
DEVILS LAKE    CLEAR     55  48  76 W7        30.15S
$$

NDZ022-023-025-028>030-036>039-047>053-271100-
SOUTHEAST NORTH DAKOTA

CITY           SKY/WX    TMP DP  RH WIND       PRES   REMARKS
FARGO          CLEAR     52  52 100 CALM      30.18S
JAMESTOWN      FOG       51  50  96 CALM      30.17F VSB 1/4
$$




USA.gov is the U.S. government's official web portal to all federal, state and local government web resources and services.